AirNav   Everest Fuels
 
 344 users online  

36S Happy Camp Airport
Happy Camp, California, USA

GOING TO HAPPY CAMP?


FAA INFORMATION EFFECTIVE 21 MAY 2020

Location

FAA Identifier: 36S
Lat/Long: 41-47-26.4460N 123-23-20.2000W
41-47.440767N 123-23.336667W
41.7906794,-123.3889444
(estimated)
Elevation: 1209 ft. / 368.5 m (surveyed)
Variation: 18E (1985)
Time zone: UTC -7 (UTC -8 during Standard Time)
Zip code: 96039

Airport Operations

Airport use: Open to the public
Activation date: 10/1951
Control tower: no
ARTCC: SEATTLE CENTER
FSS: RANCHO MURIETA FLIGHT SERVICE STATION
NOTAMs facility: RIU (NOTAM-D service available)
Attendance: UNATNDD
Wind indicator: yes
Segmented circle: yes

Airport Communications

CTAF: 122.9

Nearby radio navigation aids

VOR radial/distance  VOR name  Freq  Var
FJSr289/33.2FORT JONES VOR/DME109.6019E
CECr075/38.1CRESCENT CITY VORTAC109.0014E

Airport Services

Parking: tiedowns
Airframe service: NONE
Powerplant service: NONE
Bottled oxygen: NONE
Bulk oxygen: NONE

Runway Information

Runway 4/22

Dimensions: 3000 x 50 ft. / 914 x 15 m
Surface: asphalt, in fair condition
Weight bearing capacity: 
Single wheel: 30.0
RUNWAY 4  RUNWAY 22
Latitude: 41-47.298167N41-47.563167N
Longitude: 123-23.608667W123-23.051333W
Traffic pattern: rightleft
Markings: basic, in fair conditionbasic, in fair condition
Runway end identifier lights: nono
Obstructions: 25 ft. tree, 500 ft. from runway, 120 ft. left of centerline, 12:1 slope to clear
RWY 04 HAS 3 FT FENCE O FEET FROM RWY END AND 80 FEET L.
10 ft. brush, 200 ft. from runway, 125 ft. right of centerline
RY 22 HAS 8 FT SHRUB 0 FEET FM RY END AND 115 FT RIGHT.

Airport Ownership and Management from official FAA records

Ownership: Publicly-owned
Owner: U.S. FOREST SERVICE
63822 HIGHWAY 96
HAPPY CAMP, CA 96039-0377
Phone 530-493-1730
OPERD/MAINTD BYCOUNTY OF SISKIYOU COUNTY.
Manager: ETHAN GARRETT
190 GREENHORN ROAD
YREKA, CA 96097
Phone (530) 842-8259
DIRECTOR OF AIRPORTS OFFICE IN YREKA.

Airport Operational Statistics

Aircraft based on the field: 1
Helicopters: 1
  • US FOREST SVC MANS HELIPORT MAY THROUGH SEP.
    
Aircraft operations: 150/year *
100% transient general aviation
* for 12-month period ending 31 December 2017

Additional Remarks

E94 US FOREST SERVICE.
RWY 22 HAS +35' TREES 600' FROM THLD 125' EITHER SIDE OF CNTRLN.
FOR CD CTC SEATTLE ARTCC AT 253-351-3694.

Instrument Procedures

There are no published instrument procedures at 36S.

Some nearby airports with instrument procedures:

KCEC - Jack Mc Namara Field Airport (38 nm W)
KSIY - Siskiyou County Airport (41 nm E)
KMFR - Rogue Valley International - Medford Airport (42 nm NE)
3S8 - Grants Pass Airport (43 nm N)
O46 - Weed Airport (46 nm SE)
 
Loc | Ops | Rwys | IFR | FBO | Links
Com | Nav | Svcs | Stats | Notes
Area around 36S (Happy Camp Airport)
 
Road maps at: MapQuest Bing Google
 
Aerial photo
WARNING: Photo may not be current or correct
Aerial photo of 36S (Happy Camp Airport)
Do you have a better or more recent aerial photo of Happy Camp Airport that you would like to share? If so, please send us your photo.

 
Sectional chart

 
Airport distance calculator
Flying to Happy Camp Airport? Find the distance to fly.

From to 36S

Sunrise and sunset
Times for 07-Jun-2020
 Local
(UTC-7)
 Zulu
(UTC)
Morning civil twilight05:0612:06
Sunrise05:4012:40
Sunset20:4503:45
Evening civil twilight21:1904:19

Current date and time
Zulu (UTC)  07-Jun-2020 08:09:47
Local (UTC-7)  07-Jun-2020 01:09:47
 
METAR
KCEC 
37nm W 
070756Z AUTO 25007KT 10SM FEW055 BKN065 OVC110 12/09 A3005 RMK AO2 SLP178 T01220089 401560100
KSIY 
41nm E 
070753Z AUTO 27008KT 10SM -RA BKN036 BKN049 OVC090 07/02 A2999 RMK AO2 RAB42 SLP160 P0000 T00720017 401780072
KMFR 
42nm NE 
070753Z AUTO 26003KT 10SM BKN055 08/04 A3000 RMK AO2 SLP156 T00780039 401780078
K3S8 
43nm N 
070755Z AUTO 00000KT 10SM BKN038 BKN045 OVC055 07/06 A3003 RMK AO2
KBOK 
44nm NW 
070756Z AUTO 00000KT 10SM BKN048 OVC060 09/08 A3004 RMK AO2 RAE52 SLP175 P0002 T00890078
TAF
KCEC 
37nm W 
070540Z 0706/0806 24005KT P6SM -SHRA VCTS SCT025 BKN050CB TEMPO 0707/0710 3SM SHRA BR BKN025 FM071000 19005KT P6SM -SHRA BKN025 BKN040 FM072000 30010KT P6SM VCSH FEW025 SCT050
KMFR 
42nm NE 
070520Z 0706/0806 VRB03KT P6SM -SHRA SCT025 BKN050 FM071200 VRB03KT P6SM -SHRA BKN025 OVC050 FM071700 VRB03KT P6SM -SHRA SCT025 BKN050 FM072000 32010KT P6SM -SHRA SCT030 BKN060 FM080400 VRB03KT P6SM SCT030 SCT060
NOTAMs
Click for the latest NOTAMs
NOTAMs are issued by the DoD/FAA and will open in a separate window not controlled by AirNav.

 

 
 

Would you like to see your business listed on this page?

 If your business provides an interesting product or service to pilots, flight crews, aircraft, or users of the Happy Camp Airport, you should consider listing it here.  To start the listing process, click on the button below
 
Add a business
 

Other Pages about Happy Camp Airport

www.co.siskiyou.ca.us/...
 
Update a link
 
Copyright © AirNav, LLC. All rights reserved. Privacy Policy  Contact